User: anonymous   Login
Location: Antoign�
(47.0844°N, 0.1131°W)
Time: 23:19:05
(UTC+00:00)
Language:

SL-4 R/B - Orbit

View from above orbital plane
View from above orbital plane
View from above satellite
View from above satellite

Ground track
Ground track

The orbit data is extracted from the following two-line orbital elements,

1 39679U 14021B   21128.06942693  .00000457  00000-0  39802-4 0  9997
2 39679  51.6176  40.4722 0170352 351.2476   8.5534 15.06933184388281
Epoch (UTC): 08 May 2021 01:39:58
Eccentricity: 0.0170352
inclination: 51.6176°
perigee height: 427 km
apogee height: 663 km
right ascension of ascending node: 40.4722°
argument of perigee: 351.2476°
revolutions per day: 15.06933184
mean anomaly at epoch: 8.5534°
orbit number at epoch: 38828

The dashed part of the orbit path shows where the satellite is in the earth's shadow,  

DLR